OpenBCM V1.13 (Linux)

Packet Radio Mailbox

DB0FHN

[JN59NK Nuernberg]

 Login: GUEST





  
LU9DCE > KEP      04.02.19 21:34l 249 Lines 12202 Bytes #999 (0) @ WW
BID : 18104_LU9DCE
Read: DK3UZ DF7EAV GUEST
Subj: TLE 04 02
Path: DB0FHN<DB0BLO<DB0ERF<DB0RES<IR2UBX<IW8PGT<CX2SA<N3HYM<LU9DCE
Sent: 190204/1918Z 18104@LU9DCE.TOR.BA.ARG.SOAM BPQ6.0.18

            __    _  _  ___  ____   ___  ____    ____  ____  ____
           (  )  / )( \/ _ \(    \ / __)(  __)  (  _ \(  _ \/ ___)
           / (_/\) \/ (\__  )) D (( (__  ) _)    ) _ ( ) _ (\___ \
           \____/\____/(___/(____/ \___)(____)  (____/(____/(____/
               ESTACION DE PACKET RADIO - BUENOS AIRES (GF05OM)
                   BOLETINES INFORMATIVOS PROGRAMADOS (BIP)
                          CASTILLOEDUARDO@ZOHO.COM

+----------------------------------------------------------------------------+
OSCAR 7
1  7530U 74089B   19034.91103103 -.00000052 +00000-0 -45103-4 0  9994
2  7530 101.7249 004.0589 0011846 247.4109 133.8324 12.53636533023392
OSCAR 11 (UoSAT 2)
1 14781U 84021B   19035.50447720  .00000064  00000-0  14042-4 0  9998
2 14781  97.6251  66.4664 0009524  47.8356 312.3666 14.83061442878876
OSCAR 19 (LUSAT)
1 20442U 90005G   19034.90228008 -.00000014 +00000-0 +11062-4 0  9992
2 20442 098.6355 337.2329 0011615 181.4988 178.6162 14.32916450517012
EYESAT A
1 22825U 93061C   19034.95352467 -.00000011 +00000-0 +13815-4 0  9991
2 22825 098.8909 020.6015 0009043 037.2472 322.9335 14.30050419322426
ITAMSAT
1 22826U 93061D   19035.47620013 -.00000017  00000-0  11160-4 0  9992
2 22826  98.8851  21.1436 0009376  25.2263 334.9375 14.30383260322969
RADIO ROSTO
1 23439U 94085A   19034.91434159 -.00000041 +00000-0 +50182-4 0  9996
2 23439 064.8196 334.0804 0149235 139.0947 345.5508 11.27567482992694
JAS 2
1 24278U 96046B   19034.89706998 -.00000043  00000-0 -58008-5 0  9996
2 24278  98.5164 206.7249 0349618 229.5567 127.4597 13.53089012109574
TECHSAT 1B
1 25397U 98043D   19034.89063921 -.00000022 +00000-0 +94707-5 0  9992
2 25397 098.6761 336.7676 0002354 076.9205 283.2237 14.23659540068477
ISS (ZARYA)
1 25544U 98067A   19035.70914902  .00002470  00000-0  45950-4 0  9990
2 25544  51.6436 300.0564 0005072 352.8246  93.8019 15.53235656154673
PCSAT
1 26931U 01043C   19035.26463443 -.00000059  00000-0  93469-5 0  9990
2 26931  67.0527 350.5626 0005474 267.5265  92.5210 14.30531120905744
SAUDISAT 1C
1 27607U 02058C   19034.67323984 +.00000007 +00000-0 +21854-4 0  9997
2 27607 064.5550 102.3894 0081648 282.1352 077.0612 14.75516870866980
CUTE-1
1 27844U 03031E   19034.92345617 +.00000047 +00000-0 +41000-4 0  9996
2 27844 098.6860 045.1378 0010765 064.2892 295.9396 14.22158174809096
CUBESAT XI 4
1 27848U 03031J   19034.94774148 +.00000035 +00000-0 +35537-4 0  9992
2 27848 098.6941 045.6296 0010739 074.2243 286.0118 14.21756130808969
MOZHAYETS 4
1 27939U 03042A   19035.52222013  .00000073  00000-0  21698-4 0  9994
2 27939  98.0173 174.1302 0014005 129.1883 231.0569 14.66751362820872
CUBESAT XI 5
1 28895U 05043F   19034.90083654 +.00000102 +00000-0 +28441-4 0  9992
2 28895 097.9366 182.4257 0017880 060.1908 300.1070 14.63627139707536
CUTE-1.7+APD II
1 32785U 08021C   19034.88254526 +.00000224 +00000-0 +29844-4 0  9992
2 32785 097.5471 040.9806 0012941 356.9901 003.1237 14.88244523583561
DELFI C3
1 32789U 08021G   19034.74300153  .00001359  00000-0  95677-4 0  9996
2 32789  97.4838  88.3731 0011437 220.8742 139.1629 15.06630052586649
SEEDS
1 32791U 08021J   19034.99224426  .00000322  00000-0  38130-4 0  9994
2 32791  97.5296  46.8894 0012610 332.5198  27.5353 14.90726456584042
YUBELEINY
1 32953U 08025A   19035.47774771  .00000021  00000-0  75656-4 0  9995
2 32953  82.4994 228.2093 0019795  63.4191 296.8919 12.43087428485630
PRISM (HITOMI)
1 33493U 09002B   19035.34000805  .00000228  00000-0  25679-4 0  9996
2 33493  98.1214 311.2054 0014213 271.4160  88.5406 14.96499603545069
KKS-1 (KISEKI)
1 33499U 09002H   19035.53109413  .00000089  00000-0  21162-4 0  9996
2 33499  98.3540 229.8951 0007975 274.3704  85.6593 14.75403580539448
SWISSCUBE
1 35932U 09051B   19034.92699945 +.00000106 +00000-0 +34978-4 0  9999
2 35932 098.5698 197.0759 0007128 211.7448 148.3320 14.56240858497129
BEESAT
1 35933U 09051C   19034.86977655 +.00000079 +00000-0 +28721-4 0  9998
2 35933 098.5733 198.7046 0005106 224.1352 135.9437 14.56335286497180
ITUPSAT 1
1 35935U 09051E   19035.19372865  .00000073  00000-0  27900-4 0  9991
2 35935  98.5845 199.2833 0007456 221.7744 138.2884 14.55501715497075
XIWANG-1 (HOPE-1)
1 36122U 09072B   19035.13135600 -.00000007  00000-0  91607-4 0  9994
2 36122 100.0713  43.8445 0006950 300.1623  59.8814 13.16348452439177
TISAT 1
1 36799U 10035E   19034.92971241 +.00000299 +00000-0 +36355-4 0  9991
2 36799 098.1345 182.7859 0012800 162.5669 197.5990 14.90994889464489
JUGNU
1 37839U 11058B   19034.48270000 +.00000300 +00000-0 +17980-4 0  9995
2 37839 019.9623 074.6929 0018659 277.3154 224.0947 14.12640753378006
SRMSAT
1 37841U 11058D   19035.53539516  .00000298  00000-0  18708-4 0  9990
2 37841  19.9718 122.3076 0011808 162.1329 314.2459 14.10624042377721
M-CUBED/EXP-1 PRIME
1 37855U 11061F   19035.13096752  .00001615  00000-0  88675-4 0  9999
2 37855 101.7267 221.5502 0174548 115.5310 246.4064 15.05110827396538
HORYU 2
1 38340U 12025D   19034.64252206  .00000183  00000-0  34870-4 0  9990
2 38340  98.3461  69.0590 0011438 188.3227 171.7793 14.75662401361245
STRAND 1
1 39090U 13009E   19034.87267090 +.00000020 +00000-0 +22265-4 0  9993
2 39090 098.4997 242.9804 0008685 336.2539 023.8244 14.35069283311038
SOMP
1 39134U 13015E   19034.61134513 +.00001364 +00000-0 +72662-4 0  9992
2 39134 064.8636 097.9468 0017473 321.0678 038.9189 15.19781564319689
BEESAT 3
1 39135U 13015F   19034.82440116  .00001134  00000-0  66613-4 0  9999
2 39135  64.8707 113.6984 0010292 269.7574  90.2372 15.17181250319783
BEESAT 2
1 39136U 13015G   19034.61367590  .00000917  00000-0  56619-4 0  9994
2 39136  64.8696 117.7976 0009864 288.4536  71.5517 15.16615716319686
CUBEBUG 1
1 39153U 13018D   19035.27075027  .00000193  00000-0  32120-4 0  9997
2 39153  97.9770 134.1990 0015580 274.2397  85.7034 14.80507196311926
ZACUBE
1 39417U 13066B   19034.72073041 +.00000220 +00000-0 +33918-4 0  9993
2 39417 097.5703 055.7542 0060371 115.9444 244.8007 14.81048821281069
TRITON 1
1 39427U 13066M   19034.95546661 +.00000122 +00000-0 +27675-4 0  9996
2 39427 097.6617 020.7800 0112674 236.5701 122.4690 14.67776213278381
GOMX 1
1 39430U 13066Q   19035.42932763  .00000215  00000-0  48360-4 0  9992
2 39430  97.7276   0.9678 0150670 318.1831  40.7933 14.59192828277026
HUMSAT D
1 39433U 13066T   19035.42696674  .00000544  00000-0  58457-4 0  9996
2 39433  97.5737  88.2849 0031457  31.2150 329.0929 14.92073620283059
CUBEBUG 2
1 39440U 13066AA  19035.50638243  .00000172  00000-0  30766-4 0  9991
2 39440  97.5995  41.8936 0080861 159.9501 200.4918 14.75787884280182
FUNCUBE 1
1 39444U 13066AE  19035.53794186  .00000255  00000-0  37621-4 0  9996
2 39444  97.5696  58.3319 0059579 107.9148 252.8574 14.81854486280060
UWE-3
1 39446U 13066AG  19035.46966184  .00000186  00000-0  31265-4 0  9990
2 39446  97.5835  48.6880 0071129 137.1968 223.4813 14.78322413279437
SPROUT
1 39770U 14029E   19035.34177019  .00000690  00000-0  82849-4 0  9992
2 39770  97.8791 139.5983 0009252 159.9374 200.2201 14.87162542254865
UNISAT 6
1 40012U 14033C   19035.19309802  .00000161  00000-0  31470-4 0  9995
2 40012  97.7770 267.4309 0058544 170.3450 189.8899 14.73921787248873
DUCHIFAT 1
1 40021U 14033M   19035.41903470  .00000360  00000-0  42711-4 0  9992
2 40021  97.9218 319.6049 0013925 128.6932 231.5533 14.90513002251542
QB50P1
1 40025U 14033R   19035.02161245  .00000219  00000-0  29299-4 0  9998
2 40025  97.9071 314.9274 0013338 137.5829 222.6421 14.88859555251284
CHUBUSAT 1
1 40300U 14070C   19035.46901947  .00000807  00000-0  38299-4 0  9997
2 40300  97.3418 112.9700 0019987 163.3367 262.1476 15.21896151235607
NUDT-PHONESAT
1 40900U 15049B   19035.43847544  .00002139  00000-0  96032-4 0  9998
2 40900  97.4399  46.1288 0011685 300.8181 165.2338 15.22224721187234
ZDPS 2A
1 40901U 15049C   19035.50446132  .00000814  00000-0  43962-4 0  9997
2 40901  97.4596  43.2906 0012433 315.6267 169.8355 15.17484049186884
ZDPS 2B
1 40902U 15049D   19035.44083323  .00000685  00000-0  37736-4 0  9998
2 40902  97.4523  40.9040 0012480 312.6939 151.3111 15.17261773186853
XW-2A
1 40903U 15049E   19035.41991885  .00002129  00000-0  53070-4 0  9991
2 40903  97.3574  77.3205 0011857 272.8553 214.8947 15.41325631189566
KAITUO 1A
1 40904U 15049F   19035.48780980  .00000528  00000-0  31553-4 0  9994
2 40904  97.4643  39.8270 0013547 318.5007 160.7857 15.15235983186679
OBJECT G
1 40905U 15049G   19035.47389498  .00000676  00000-0  40599-4 0  9997
2 40905  97.4661  37.5355 0014713 312.1523 168.4772 15.14174159186563
XW-2C
1 40906U 15049H   19035.51347471  .00000506  00000-0  30174-4 0  9998
2 40906  97.4649  39.8530 0013588 309.0072 167.7575 15.15491965186676
XW-2D
1 40907U 15049J   19035.30863878  .00000530  00000-0  31296-4 0  9993
2 40907  97.4622  39.3300 0012887 307.5570 167.2186 15.15665217186659
LILACSAT 2
1 40908U 15049K   19035.54073461  .00000667  00000-0  40640-4 0  9995
2 40908  97.4752  38.6060 0014771 311.4314 163.2342 15.13695324186518
XW-2F
1 40910U 15049M   19035.39150926  .00001159  00000-0  61947-4 0  9993
2 40910  97.4606  41.1478 0013439 300.2197 165.5412 15.17008178186653
XW-2B
1 40911U 15049N   19035.53357277  .00000918  00000-0  51773-4 0  9996
2 40911  97.4653  40.1645 0012929 308.2023 167.4671 15.15603926186580
KAITUO 1B
1 40912U 15049P   19035.50158833  .00001234  00000-0  61651-4 0  9999
2 40912  97.4505  44.6193 0013495 282.9176 228.4883 15.19283337186936
TIANWANG 1C (TW-1C)
1 40926U 15051B   19035.55246630  .00012565  00000-0  20351-3 0  9995
2 40926  97.1570  82.0277 0009610 137.9206   1.8474 15.52879004189320
